New Philadelphia, OH

12:24 AM EST on February 22, 2017 (GMT -0500)
Clever

Weather History for KPHD - February, 2012

Change the Weather History Date:

Friday, February 10, 2012

  Actual Average Record
Temperature  
Mean Temperature 31 °F 31 °F  
Max Temperature 32 °F 40 °F 64 °F (2001)
Min Temperature 29 °F 22 °F -10 °F (1975)
Degree Days  
Heating Degree Days 34 34  
Month to date heating degree days 311 348  
Since 1 July heating degree days 1601 3620  
Cooling Degree Days 0 0  
Month to date cooling degree days 0 0  
Year to date cooling degree days 0 0  
Moisture  
Dew Point 21 °F    
Average Humidity 72    
Maximum Humidity 85    
Minimum Humidity 58    
Precipitation  
Precipitation T in 0.09 in 0.42 in (1965)
Month to date precipitation 0.41 0.81  
Year to date precipitation 3.04 3.41  
Sea Level Pressure  
Sea Level Pressure 30.05 in    
Wind  
Wind Speed 5 mph (WSW)    
Max Wind Speed 16 mph    
Max Gust Speed 24 mph    
Visibility 6 miles    
Events Snow    
T = Trace of Precipitation, MM = Missing Value Source: NWS Daily Summary

Daily Weather History Graph

Daily Weather History Graph

Search for Another Location

Airport or City:

Trip Planner

Search our weather history database for the weather conditions in past years. The results will help you decide how hot, cold, wet, or windy it might be!

Date:

Astronomy

Feb. 10, 2012 Rise Set
Actual Time 7:26 AM EST 5:54 PM EST
Civil Twilight 6:57 AM EST 6:22 PM EST
Nautical Twilight 6:25 AM EST 6:54 PM EST
Astronomical Twilight 5:53 AM EST 7:26 PM EST
Moon 9:31 PM EST (2/10) 8:33 AM EST (2/10)
Length of Visible Light 11h 24m
Length of Day
10h 28m
Waning Gibbous, 90% of the Moon is Illuminated
Feb 10
Waning Gibbous
Feb 14
Last Quarter
Feb 21
New
Feb 29
First Quarter
Mar 8
Full

Hourly Weather History & Observations

Time (EST) Temp. Windchill Dew Point Humidity Pressure Visibility Wind Dir Wind Speed Gust Speed Precip Events Conditions
12:53 AM 30.9 °F 27.5 °F 19.0 °F 61% 30.19 in 10.0 mi SW 3.5 mph - N/A   Overcast
1:53 AM 30.9 °F 27.5 °F 19.0 °F 61% 30.17 in 10.0 mi SW 3.5 mph - N/A   Overcast
2:53 AM 30.9 °F 27.5 °F 19.9 °F 64% 30.16 in 10.0 mi SW 3.5 mph - N/A   Overcast
3:53 AM 30.9 °F 25.2 °F 21.0 °F 67% 30.15 in 10.0 mi SW 5.8 mph - N/A   Overcast
4:41 AM 30.2 °F 24.3 °F 21.2 °F 69% 30.13 in 10.0 mi West 5.8 mph - N/A   Overcast
4:53 AM 30.9 °F 21.2 °F 19.0 °F 61% 30.16 in 10.0 mi West 12.7 mph 21.9 mph N/A   Overcast
5:53 AM 30.0 °F 23.2 °F 17.1 °F 59% 30.15 in 10.0 mi West 6.9 mph - N/A   Overcast
6:53 AM 30.0 °F 21.1 °F 17.1 °F 59% 30.15 in 10.0 mi West 10.4 mph 17.3 mph N/A   Overcast
7:53 AM 30.0 °F 22.4 °F 17.1 °F 59% 30.14 in 10.0 mi WNW 8.1 mph - N/A   Overcast
8:53 AM 30.0 °F 26.5 °F 17.1 °F 59% 30.14 in 10.0 mi WNW 3.5 mph - N/A   Overcast
9:53 AM 30.9 °F 26.2 °F 18.0 °F 59% 30.13 in 10.0 mi West 4.6 mph - N/A   Overcast
10:53 AM 30.9 °F 24.3 °F 18.0 °F 59% 30.13 in 10.0 mi Variable 6.9 mph - N/A   Overcast
11:53 AM 30.9 °F 24.3 °F 18.0 °F 59% 30.11 in 10.0 mi West 6.9 mph - N/A   Overcast
12:53 PM 30.9 °F 24.3 °F 18.0 °F 59% 30.08 in 10.0 mi WSW 6.9 mph - N/A   Overcast
1:45 PM 30.2 °F 23.4 °F 19.4 °F 64% 30.02 in 2.0 mi WSW 6.9 mph - 0.00 in Snow Light Snow
1:53 PM 30.0 °F 23.2 °F 21.0 °F 69% 30.05 in 2.0 mi South 6.9 mph - 0.00 in Snow Light Snow
2:02 PM 30.2 °F 23.4 °F 21.2 °F 69% 30.01 in 1.5 mi SSW 6.9 mph - 0.00 in Snow Light Snow
2:21 PM 30.2 °F 26.7 °F 23.0 °F 75% 30.00 in 2.5 mi Variable 3.5 mph - 0.00 in Snow Light Snow
2:36 PM 28.4 °F - 23.0 °F 80% 30.00 in 3.0 mi Calm Calm - 0.00 in Snow Light Snow
2:46 PM 28.4 °F - 23.0 °F 80% 29.99 in 2.5 mi Calm Calm - 0.00 in Snow Light Snow
2:53 PM 28.9 °F - 23.0 °F 78% 30.02 in 2.5 mi Calm Calm - 0.00 in Snow Light Snow
2:56 PM 30.2 °F 26.7 °F 23.0 °F 75% 29.99 in 3.0 mi Variable 3.5 mph - 0.00 in Snow Light Snow
3:53 PM 30.9 °F 26.2 °F 23.0 °F 72% 30.01 in 4.0 mi WSW 4.6 mph - 0.00 in   Haze
4:08 PM 30.2 °F - 24.8 °F 80% 29.97 in 5.0 mi Calm Calm - N/A   Haze
4:41 PM 30.2 °F 25.4 °F 23.0 °F 75% 29.97 in 1.8 mi SW 4.6 mph - 0.00 in Snow Light Snow
4:53 PM 30.0 °F 26.5 °F 24.1 °F 79% 30.01 in 1.2 mi WSW 3.5 mph - 0.00 in Snow Light Snow
5:05 PM 30.2 °F - 24.8 °F 80% 29.98 in 1.8 mi Calm Calm - 0.00 in Snow Light Snow
5:35 PM 28.4 °F 24.6 °F 24.8 °F 86% 29.98 in 1.0 mi West 3.5 mph - 0.00 in Snow Light Snow
5:53 PM 28.9 °F 25.2 °F 24.1 °F 82% 30.01 in 1.2 mi West 3.5 mph - 0.00 in Snow Light Snow
6:06 PM 28.4 °F - 24.8 °F 86% 29.98 in 2.0 mi Calm Calm - 0.00 in Snow Light Snow
6:39 PM 28.4 °F 24.6 °F 24.8 °F 86% 29.97 in 3.0 mi West 3.5 mph - 0.00 in Snow Light Snow
6:53 PM 28.9 °F - 24.1 °F 82% 30.00 in 4.0 mi Calm Calm - 0.00 in Snow Light Snow
7:53 PM 28.9 °F - 24.1 °F 82% 29.99 in 7.0 mi Calm Calm - 0.00 in   Overcast
8:53 PM 28.9 °F 23.9 °F 23.0 °F 78% 29.97 in 9.0 mi SSW 4.6 mph - N/A   Overcast
9:53 PM 28.9 °F 23.9 °F 23.0 °F 78% 29.96 in 10.0 mi SSW 4.6 mph - N/A   Overcast
10:53 PM 28.9 °F 25.2 °F 24.1 °F 82% 29.94 in 6.0 mi Variable 3.5 mph - 0.00 in   Haze
11:53 PM 28.9 °F 23.9 °F 24.1 °F 82% 29.91 in 4.0 mi SSW 4.6 mph - 0.00 in Snow Light Snow